Location: D�muin
(49.8193°N, 2.5372°E)
Time: 14:44:11
(UTC+00:00)

Daily predictions for brighter satellites

Satellite Brightness Start Highest point End
(mag) Time Altitude Azimuth Time Altitude Azimuth Time Altitude Azimuth
Spot 2 Rocket 4.3 20:12:46 10° SE 20:17:28 38° ENE 20:22:10 10° N
Cosmos 332 Rocket 4.2 20:18:51 10° NNW 20:23:39 52° ENE 20:28:25 10° SE
ISS -3.6 20:21:54 10° WNW 20:25:17 65° SSW 20:28:37 10° ESE
ERS-2 2.1 20:23:06 10° NNE 20:26:46 90° WNW 20:30:25 10° SSW
Cosmos 1151 Rocket 4.5 20:23:51 10° NNE 20:27:23 24° ENE 20:30:55 10° ESE
Cosmos 1076 Rocket 3.5 20:23:06 10° S 20:27:23 67° E 20:31:45 10° NNE
USA 234 4.1 20:24:16 10° E 20:30:32 49° N 20:36:48 10° WNW
Cosmos 2219 Rocket 4.4 20:27:33 10° N 20:30:53 16° NNE 20:34:12 10° ENE
Cosmos 1092 Rocket 4.4 20:26:09 10° SSE 20:32:02 45° E 20:38:00 10° NNE
Cosmos 1782 3.9 20:29:19 10° N 20:32:53 29° ENE 20:36:11 11° SE
Landsat 7 4.0 20:29:19 10° S 20:34:03 77° WSW 20:38:51 10° NNW
Cosmos 1842 Rocket 4.5 20:30:13 10° NNW 20:34:35 51° W 20:38:55 10° S
SL-16 R/B 2.7 20:31:13 10° NNW 20:36:46 50° NE 20:42:00 11° SE
Cosmos 1538 Rocket 4.0 20:32:37 10° S 20:37:43 59° ESE 20:42:49 10° NNE
Cosmos 2098 Rocket 2.4 20:40:21 10° S 20:43:25 84° W 20:47:06 10° N
Cosmos 2026 Rocket 4.4 20:40:21 10° SSE 20:46:21 47° E 20:52:18 10° NNE
Cosmos 1271 Rocket 3.1 20:42:42 10° N 20:46:37 53° ENE 20:50:02 13° SSE
GP-B 3.5 20:46:15 10° NNE 20:50:34 48° E 20:54:30 12° SSE
CZ-2C R/B 3.7 20:46:15 10° NNE 20:50:47 62° ESE 20:55:13 10° S
Nadezhda 4 Rocket 4.1 20:47:24 10° S 20:53:35 83° W 20:59:52 10° N
ATLAS 5 CENTAUR R/B 4.0 20:56:20 10° NNW 21:00:18 23° NNE 21:04:47 10° ENE
Cosmos 304 Rocket 3.8 20:56:09 10° NNW 21:00:59 85° WSW 21:05:03 14° SSE
Cosmos 1833 Rocket 4.5 21:01:46 10° WSW 21:06:56 35° NW 21:12:06 10° NNE
Okean 3 Rocket 4.2 21:04:43 16° SSE 21:07:51 38° E 21:12:02 10° NNE
SPOT 1/Viking Rocket 4.0 21:03:00 10° S 21:08:07 60° W 21:13:18 10° NNW
Cosmos 2082 Rocket 3.0 21:05:40 10° SW 21:11:12 57° NW 21:16:48 10° NNE
USA 245 4.1 21:07:06 10° S 21:12:17 63° WSW 21:16:30 10° NNW
Cosmos 220 Rocket 4.4 21:09:00 10° NNW 21:13:14 51° ENE 21:16:06 19° SE
Cosmos 1428 Rocket 4.4 21:10:10 10° S 21:16:17 76° E 21:22:25 10° NNE
BREEZE-M DEB (TANK) 3.3 21:14:58 10° W 21:18:05 40° SSW 21:23:01 17° SE
Resurs 01 Rocket 3.5 21:14:41 10° SSW 21:18:25 26° W 21:22:12 10° NW
BREEZE-M DEB (TANK) 4.4 21:15:50 10° W 21:19:25 44° SSW 21:26:50 16° SE
Cosmos 2360 Rocket 2.7 21:16:04 10° NNW 21:21:35 51° NE 21:25:36 18° SE
Cosmos 923 Rocket 4.0 21:18:54 10° S 21:24:10 66° ESE 21:29:30 10° NNE
Cosmos 1553 Rocket 4.0 21:20:01 10° N 21:26:06 66° ENE 21:30:29 19° SSE
Cosmos 1408 Rocket 4.5 21:24:14 22° SE 21:26:11 31° E 21:30:01 10° NNE
Cosmos 2333 Rocket 3.4 21:23:21 10° NNW 21:28:28 33° NE 21:32:47 14° ESE
ATLAS 2AS CENTAUR R/B 3.9 21:22:33 10° WSW 21:30:16 54° NW 21:37:42 10° NE
RESURS DK-1 4.3 21:27:13 10° WSW 21:30:59 32° NW 21:34:45 10° NNE
CARTOSAT-1 4.3 21:29:56 14° S 21:33:32 48° W 21:37:44 10° NNW
Cosmos 2056 Rocket 3.7 21:28:54 10° NNW 21:34:17 67° ENE 21:37:36 23° SE
USA 276 2.7 21:31:18 10° W 21:34:18 40° SSW 21:35:05 33° SSE
Cosmos 2151 4.2 21:31:19 10° SSW 21:35:20 42° WNW 21:39:26 10° N
Cosmos 1812 2.7 21:31:29 10° N 21:35:21 68° ENE 21:37:16 28° SSE
ATLAS 3B R/B 3.8 21:30:09 10° NW 21:36:32 37° WSW 21:42:22 13° S
USA 267 3.8 21:31:41 10° ENE 21:37:36 35° SE 21:43:28 10° SSW
Cosmos 1980 Rocket 4.3 21:38:19 10° NW 21:42:13 20° W 21:46:08 10° SW
Cosmos 2084 4.0 21:42:47 29° SSE 21:43:51 34° ESE 21:47:38 10° ENE
ERS-1 Rocket 3.3 21:40:38 18° S 21:44:23 60° WSW 21:49:23 10° NNW
SPOT 5 3.1 21:41:37 19° S 21:44:35 55° W 21:48:55 10° NNW
ARIANE 5 R/B 3.5 21:41:11 15° SSW 21:44:37 46° W 21:48:55 10° NNW
SL-27 R/B 3.3 21:44:33 30° ESE 21:45:03 32° ESE 21:48:17 10° NE
NOSS 2-1 (C) 3.7 21:46:53 30° ESE 21:46:53 30° ESE 21:49:34 10° ENE
Terra 1.9 21:43:31 22° S 21:46:34 77° WSW 21:51:21 10° NNW
Cosmos 1515 Rocket 3.7 21:43:13 10° N 21:47:39 61° ENE 21:49:44 29° SSE
Cosmos 1655 Rocket 4.4 21:43:54 22° SSE 21:47:45 49° E 21:53:52 10° NNE
Cosmos 2237 Rocket 4.4 21:47:20 10° N 21:51:14 18° NE 21:55:07 10° ENE
Cosmos 2322 Rocket 2.4 21:47:31 10° NNW 21:53:07 65° WSW 21:56:28 24° S
Cosmos 1417 Rocket 4.5 21:46:49 10° N 21:53:13 85° E 21:57:19 23° S
NOSS 2-1 (D) 3.3 21:54:20 37° ESE 21:54:20 37° ESE 21:57:21 10° NE
Cosmos 1371 Rocket 4.1 21:50:17 10° NNW 21:55:40 78° WSW 21:58:42 27° SSE
S3M 4.1 21:49:22 10° N 21:55:47 75° E 21:59:44 25° SSE
H-2A R/B 3.5 21:54:37 10° NNE 21:58:48 62° ESE 22:00:37 32° S
Cosmos 2112 Rocket 3.9 21:54:10 13° SSW 21:58:51 83° ESE 22:04:09 10° NNE
Gbstr 26 Del rocket 3.6 21:56:04 10° W 21:59:32 35° SSW 22:00:26 31° S
Cosmos 1680 Rocket 3.5 21:54:24 10° SSW 21:59:41 86° WNW 22:04:59 10° NNE
Cosmos 1766 Rocket 3.9 21:57:59 16° SSW 22:01:25 62° WNW 22:05:47 10° N
ISS -1.7 21:59:30 10° W 22:01:37 16° SW 22:01:37 16° SW
Cosmos 1862 3.2 22:02:44 30° S 22:04:38 89° E 22:08:38 10° N
Cosmos 1151 Rocket 4.0 22:01:01 10° NNW 22:05:06 41° W 22:07:51 19° SSW
Cosmos 1328 Rocket 4.2 22:02:05 10° NNW 22:06:26 52° W 22:08:55 23° SSW
COSMOS 2455 3.7 22:05:55 26° SE 22:07:23 29° ESE 22:12:29 10° NE
USA 234 3.4 22:07:28 14° ESE 22:13:10 77° NNE 22:19:45 10° WNW
ALOS 2 4.0 22:13:01 21° ESE 22:14:50 28° ENE 22:18:34 10° N
Cosmos 2219 Rocket 2.6 22:10:39 10° NNW 22:16:10 54° NE 22:19:13 26° ESE
COBE Rocket 4.0 22:16:53 34° SE 22:18:43 59° ENE 22:23:20 10° N
SL-16 R/B 3.4 22:15:40 10° NW 22:20:40 33° WSW 22:23:52 19° SSW
Cosmos 2333 4.2 22:16:57 10° NNW 22:22:35 80° ENE 22:25:16 32° SE
COSMOS 2428 3.2 22:21:00 10° NNW 22:26:38 55° NE 22:29:40 26° ESE
Cosmos 292 Rocket 3.9 22:28:26 10° NNW 22:33:11 66° WSW 22:34:52 38° S
Cosmos 1805 Rocket 4.0 22:32:29 40° SE 22:33:30 48° E 22:37:46 10° NNE
Cosmos 1515 4.5 22:33:34 10° N 22:37:08 38° ENE 22:37:44 35° E
CZ-3B R/B 2.5 22:32:53 10° WNW 22:42:56 90° SW 22:44:24 38° ESE
Cosmos 1500 Rocket 3.6 22:43:11 39° SSW 22:44:46 78° W 22:49:14 10° N
ATLAS 5 CENTAUR R/B 2.7 22:40:38 10° NW 22:45:53 59° NE 22:49:59 21° ESE
Meteor 1-27 Rocket 3.8 22:42:19 10° NNW 22:47:55 69° W 22:50:25 34° S
NOSS 2-1 (E) 3.2 22:51:16 39° WSW 22:52:18 65° NW 22:55:51 10° NE
NOSS 3-1 (C) 4.1 22:46:50 10° NW 22:54:12 72° SW 22:58:46 31° SSE
NOSS 0 Rocket 4.3 22:50:49 10° NNW 22:57:00 58° NE 23:00:29 26° ESE
Cosmos 972 Rocket 3.9 22:55:31 38° S 22:57:35 78° ESE 23:02:37 10° NNE
Cosmos 2285 Rocket 4.0 22:55:49 10° NNW 23:02:09 80° WSW 23:04:48 37° SSE
Cosmos 1743 Rocket 4.2 23:02:36 32° SW 23:04:23 52° WNW 23:08:45 10° N
Cosmos 2360 Rocket 3.3 23:00:27 10° NW 23:05:21 32° WSW 23:07:21 25° SW
Cosmos 2315 Rocket 4.2 23:00:08 10° NNW 23:06:23 64° W 23:09:19 33° SSW
Cosmos 1452 Rocket 3.6 23:01:41 10° NNW 23:06:53 63° WSW 23:08:29 42° S
Meteor 1-20 Rocket 4.2 23:05:25 41° S 23:07:26 75° E 23:13:08 10° NNE
USA 229 DEB 3.8 23:00:36 10° NW 23:07:55 85° SW 23:12:08 30° SE
USA 229 3.9 23:00:42 10° NW 23:08:00 86° SW 23:12:15 30° SE
Cosmos 1980 4.3 23:07:26 10° NNW 23:12:59 51° NE 23:16:00 26° ESE
Cosmos 2333 Rocket 2.5 23:07:30 10° NW 23:13:01 53° WSW 23:14:46 38° SSW
COSMOS 2487 2.3 23:13:20 79° NW 23:13:20 79° NW 23:16:42 10° NNE
Cosmos 2084 Rocket 4.3 23:10:58 10° NW 23:14:59 46° NE 23:17:04 25° E
Spot 4 4.2 23:14:03 40° SSW 23:15:24 53° W 23:20:09 10° NNW
Sich 1 3.0 23:14:38 55° SSW 23:15:35 84° WNW 23:19:56 10° N
Cosmos 1633 Rocket 3.3 23:17:04 47° ESE 23:17:39 51° E 23:21:53 10° NNE
Cosmos 2228 Rocket 4.0 23:16:10 10° NNW 23:20:17 39° W 23:21:21 33° SW
Cosmos 1666 Rocket 3.6 23:20:10 56° SE 23:20:52 66° E 23:25:17 10° NNE
USA 267 3.2 23:14:30 10° ENE 23:21:05 88° NNW 23:27:39 10° WSW
Cosmos 489 Rocket 4.4 23:20:59 37° S 23:23:40 78° ESE 23:30:03 10° NNE
Cosmos 2322 4.2 23:18:46 10° NW 23:24:13 47° WSW 23:25:54 37° SSW
Terra 4.4 23:24:06 10° W 23:25:08 11° W 23:26:10 10° WNW
NOSS 3-1 (A) 4.1 23:20:56 10° NW 23:28:19 72° SW 23:32:41 32° SSE
Meteor 1-18 Rocket 4.2 23:24:23 10° NNW 23:30:19 88° E 23:32:22 43° SSE
CZ-4C R/B 4.2 23:26:11 10° NW 23:32:14 36° NNE 23:39:22 10° E
Cosmos 2297 Rocket 3.2 23:32:09 29° SE 23:33:08 31° ESE 23:38:01 10° NE
Cosmos 1110 Rocket 4.0 23:28:52 10° NNW 23:34:11 70° WSW 23:35:37 47° S
Cosmos 2322 Rocket 4.5 23:34:47 10° W 23:36:01 11° W 23:37:16 10° WSW
Cosmos 2237 Rocket 2.4 23:30:44 10° NNW 23:36:24 68° ENE 23:38:58 33° SE
Okean 1 3.4 23:33:01 10° NNW 23:37:01 64° W 23:37:21 60° SW
Meteor 1-25 Rocket 4.4 23:38:17 36° SW 23:40:33 67° WNW 23:46:07 10° N
Cosmos 1331 Rocket 4.0 23:35:21 10° NNW 23:40:35 68° WSW 23:41:53 49° S
Cosmos 1862 Rocket 3.4 23:37:59 10° N 23:42:23 87° W 23:43:02 64° S
Cosmos 1500 3.0 23:44:24 80° SSW 23:44:36 88° WNW 23:48:28 10° N
Cosmos 2227 Rocket 3.3 23:43:37 27° ESE 23:44:40 28° ESE 23:49:27 10° NE
Cosmos 1745 Rocket 4.1 23:43:09 39° SSE 23:45:27 64° E 23:51:40 10° NNE
ALOS 2 3.4 23:50:25 36° WSW 23:51:02 38° W 23:55:09 10° NNW
Cosmos 1707 Rocket 4.3 23:47:47 10° NNW 23:51:52 40° W 23:52:31 37° WSW
COSMOS 2455 3.2 23:49:00 22° SW 23:52:57 64° NW 23:58:57 10° NNE
